Observer details:
048 Hradec Kralove.  Observer M. Lehky.  0.40-m f/5 reflector + CCD.
147 Osservatorio Astronomico di Suno.  Observers D. Crespi, S. Foglia,
    G. Galli, S. Minuto.  Measurer S. Foglia.  0.40-m f/4 reflector + CCD.
157 Frasso Sabino.  Observers R. Haver, R. Gorelli, F. Anzellini.  Measurer
    R. Haver.
233 San Vito.  Observer S. Donati.  0.25-m f/10 Schmidt-Cassegrain + CCD.
340 Toyonaka.  Observer Y. Ezaki.  0.30-m f/6 reflector + CCD.
349 Ageo.  Observer K. Kadota.  0.25-m f/5.0 reflector + CCD.
360 Kuma Kogen.  Observer A. Nakamura.  0.60-m f/5.8 Ritchey-Chretien + CCD.
372 Geisei.  Observer T. Seki.  0.60-m f/3.5 reflector.
699 Lowell Observatory-LONEOS.  Observer M. E. Van Ness.  0.59-m LONEOS
    Schmidt + CCD.
703 Catalina Sky Survey.  Observer R. Hill.  Measurers E. C. Beshore,
    C. M. Casey, E. J. Christensen, G. J. Garradd, A. D. Grauer, R. E. Hill,
    S. M. Larson, R. H. McNaught.  0.68-m Schmidt + CCD.
939 Observatorio Rodeno.  Observer J. Castellano.  0.20-m f/10
    Schmidt-Cassegrain + CCD.
945 Observatorio Monte Deva.  Observer J. R. Vidal.
    0.36-m f/3.3 Schmidt-Cassegrain + CCD.
A32 Panker.  Observer H. Denzau.  0.36-m f/5.5 Schmidt-Cassegrain + CCD.
A46 Lelekovice.  Observer K. Hornoch.  0.35-m f/4.7 reflector + CCD.
F65 Haleakala-Faulkes Telescope North.  Observers A. Fitzsimmons, S. C. Lowry,
    C. Snodgrass.  2.0-m f/10.0 reflector + CCD.
G96 Mt. Lemmon Survey.  Observer A. Grauer.  Measurers E. C. Beshore,
    C. M. Casey, E. J. Christensen, G. J. Garradd, A. Grauer, R. E. Hill,
    S. M. Larson, R. H. McNaught.  1.5-m reflector + CCD.
H06 New Mexico Skies Observatory.  Observer J. Sue.  0.25-m reflector + CCD.
H45 Petit Jean Mountain South.  Observer P. C. Sherrod.  0.41-m f/3.3
    Schmidt-Cassegrain + CCD.
I77 CEAMIG-REA Observatory, Belo Horizonte.  Observers C. Jacques, E. Pimentel.
    Measurer C. Jacques.  0.30-m f/3.0 Schmidt-Cassegrain + CCD.
J76 La Murta.  Observers S. Pastor, J. A. Reyes.  0.40-m f/6.3
    Schmidt-Cassegrain + CCD.
J78 Murcia.  Observer J. Sanchez.  0.25-m f/8.9 Schmidt-Cassegrain + CCD.
J97 Alginet.  Observer T. Climent G.  0.25-m f/7 Schmidt-Cassegrain + CCD.

Orbital elements:
    P/2005 JQ5 (Catalina)
T 2005 July 28.0435 TT                                  MPC
q   0.825565             (2000.0)            P               Q
n   0.2230998      Peri.  222.6947      +0.7462931      +0.6582570
a   2.692381       Node    95.8630      -0.5807977      +0.7164365
e   0.693370       Incl.    5.6950      -0.3251472      +0.2311200
P   4.42
From 440 observations 2005 May 6-June 5.

Ephemeris:
    P/2005 JQ5 (Catalina)
Date    TT    R. A. (2000) Decl.     Delta      r     Elong.  Phase   m1    m2
2005 05 30    14 19.43   +03 22.9    0.238    1.205   139.8    32.9  15.2
2005 06 09    13 31.57   +07 23.6    0.173    1.109   118.9    53.3  14.1
2005 06 19    12 04.34   +12 56.4    0.122    1.019    88.1    85.1  13.0
2005 06 29    09 24.82   +17 45.3    0.104    0.940    40.8   135.1  12.3
2005 07 09    06 58.11   +15 39.3    0.140    0.878     7.6   171.2  12.7
2005 07 19    05 53.27   +13 05.8    0.213    0.838    29.7   143.0  13.4
2005 07 29    05 31.94   +12 18.4    0.301    0.826    44.0   121.3  14.1

Brian G. Marsden             (C) Copyright 2005 MPC           M.P.E.C. 2005-L27

Read MPEC 2005-L26 Read MPEC 2005-L28


Our Web policy. Index to the CBAT/MPC/ICQ pages.

